User: anonymous   Login
Location: San Francisco
(37.7750°N, 122.4180°W)
Time: 18:41:12
(UTC-07:00)
Language:

GP-B - Orbit

View from above orbital plane
View from above orbital plane
View from above satellite
View from above satellite

Ground track
Ground track

The orbit data is extracted from the following two-line orbital elements,

1 28230U 04014A   17177.23051984 +.00000115 +00000-0 +13443-4 0  9995
2 28230 089.8481 121.8636 0003230 097.8708 262.2881 14.78544112167638
Epoch (UTC): 26 June 2017 05:31:56
Eccentricity: 0.0003230
inclination: 89.8481°
perigee height: 631 km
apogee height: 636 km
right ascension of ascending node: 121.8636°
argument of perigee: 97.8708°
revolutions per day: 14.78544112
mean anomaly at epoch: 262.2881°
orbit number at epoch: 16763

The dashed part of the orbit path shows where the satellite is in the earth's shadow,  

DLR